Weather History for South Bend, IN

Change the Weather History Date:

Monday, April 22, 2013

  Actual Average Record
Temperature  
Mean Temperature 50 °F 52 °F  
Max Temperature 64 °F 62 °F 89 °F (1980)
Min Temperature 35 °F 41 °F 20 °F (1936)
Degree Days  
Heating Degree Days 15 14  
Month to date heating degree days 438 389  
Since 1 July heating degree days 5849 5933  
Cooling Degree Days 0 0  
Month to date cooling degree days 0 0  
Year to date cooling degree days 0 1  
Moisture  
Dew Point 30 °F    
Average Humidity 51    
Maximum Humidity 76    
Minimum Humidity 26    
Precipitation  
Precipitation 0.00 in 0.10 in 1.75 in (1999)
Month to date precipitation 4.58 2.33  
Year to date precipitation 13.33 8.99  
Snow  
Snow 0.00 in - - ()
Month to date snowfall T  
Snow Depth 0.00 in    
Sea Level Pressure  
Sea Level Pressure 30.27 in    
Wind  
Wind Speed 9 mph (SE)    
Max Wind Speed 18 mph    
Max Gust Speed 21 mph    
Visibility 10 miles    
Events      
T = Trace of Precipitation, MM = Missing Value Source: NWS Daily Summary

Daily Weather History Graph

Daily Weather History Graph

Search for Another Location

Airport:

Trip Planner

Search our weather history database for the weather conditions in past years. The results will help you decide how hot, cold, wet, or windy it might be!

Date:

Astronomy

Apr. 22, 2013 Rise Set
Actual Time 6:54 AM EDT 8:33 PM EDT
Civil Twilight 6:24 AM EDT 9:03 PM EDT
Nautical Twilight 5:49 AM EDT 9:39 PM EDT
Astronomical Twilight 5:11 AM EDT 10:17 PM EDT
Moon 5:19 PM EDT (4/22) 4:51 AM EDT (4/22)
Length of Visible Light 14h 38m
Length of Day
13h 39m
Waxing Gibbous, 87% of the Moon is Illuminated
Apr 22
Waxing Gibbous
Apr 25
Full
May 2
Last Quarter
May 9
New
May 18
First Quarter

Hourly Weather History & Observations

Time (EDT) Temp. Windchill Dew Point Humidity Pressure Visibility Wind Dir Wind Speed Gust Speed Precip Events Conditions
12:54 AM 42.1 °F 35.7 °F 28.9 °F 60% 30.40 in 10.0 mi SE 11.5 mph - N/A   Clear
1:54 AM 41.0 °F 34.7 °F 30.9 °F 67% 30.39 in 10.0 mi SE 10.4 mph - N/A   Clear
2:54 AM 39.0 °F 32.3 °F 30.9 °F 73% 30.38 in 10.0 mi SE 10.4 mph - N/A   Clear
3:54 AM 37.9 °F 31.5 °F 30.0 °F 73% 30.37 in 10.0 mi SE 9.2 mph - N/A   Clear
4:54 AM 37.0 °F 29.8 °F 28.9 °F 73% 30.35 in 10.0 mi SE 10.4 mph - N/A   Clear
5:54 AM 37.0 °F 31.0 °F 28.9 °F 73% 30.35 in 10.0 mi SE 8.1 mph - N/A   Clear
6:54 AM 36.0 °F 33.3 °F 28.0 °F 73% 30.36 in 10.0 mi ESE 3.5 mph - N/A   Clear
7:54 AM 36.0 °F 32.1 °F 28.9 °F 76% 30.36 in 10.0 mi East 4.6 mph - N/A   Clear
8:54 AM 42.1 °F 36.6 °F 28.9 °F 60% 30.35 in 10.0 mi SE 9.2 mph - N/A   Clear
9:54 AM 48.0 °F - 30.0 °F 50% 30.33 in 10.0 mi SE 8.1 mph - N/A   Clear
10:54 AM 53.1 °F - 30.9 °F 43% 30.33 in 10.0 mi SE 5.8 mph - N/A   Clear
11:54 AM 57.0 °F - 32.0 °F 39% 30.32 in 10.0 mi SE 9.2 mph - N/A   Clear
12:54 PM 59.0 °F - 32.0 °F 36% 30.29 in 10.0 mi SE 10.4 mph - N/A   Clear
1:54 PM 60.1 °F - 30.0 °F 32% 30.27 in 10.0 mi South 5.8 mph - N/A   Clear
2:54 PM 62.1 °F - 30.9 °F 31% 30.25 in 10.0 mi ESE 10.4 mph 16.1 mph N/A   Clear
3:54 PM 63.0 °F - 28.9 °F 28% 30.22 in 10.0 mi SE 10.4 mph - N/A   Clear
4:54 PM 64.0 °F - 28.9 °F 27% 30.19 in 10.0 mi SSE 15.0 mph 18.4 mph N/A   Clear
5:54 PM 63.0 °F - 28.9 °F 28% 30.16 in 10.0 mi SSE 13.8 mph - N/A   Clear
6:54 PM 63.0 °F - 28.9 °F 28% 30.15 in 10.0 mi SE 13.8 mph - N/A   Clear
7:54 PM 62.1 °F - 28.9 °F 29% 30.13 in 10.0 mi SE 13.8 mph - N/A   Clear
8:54 PM 57.9 °F - 32.0 °F 37% 30.14 in 10.0 mi SE 8.1 mph - N/A   Clear
9:54 PM 55.9 °F - 34.0 °F 44% 30.14 in 10.0 mi ESE 8.1 mph - N/A   Clear
10:54 PM 54.0 °F - 34.0 °F 47% 30.14 in 10.0 mi SE 5.8 mph - N/A   Clear
11:54 PM 52.0 °F - 34.0 °F 50% 30.12 in 10.0 mi SE 8.1 mph - N/A   Clear